Weather History for KVTN - February, 2013

Change the Weather History Date:

Saturday, February 9, 2013

  Actual Average Record
Temperature  
Mean Temperature 28 °F 26 °F  
Max Temperature 35 °F 38 °F 70 °F (1996)
Min Temperature 20 °F 13 °F -31 °F (1994)
Degree Days  
Heating Degree Days 37 39  
Month to date heating degree days 261 358  
Since 1 July heating degree days 4196 4536  
Cooling Degree Days 0 0  
Month to date cooling degree days 0 0  
Year to date cooling degree days 0 0  
Moisture  
Dew Point 24 °F    
Average Humidity 88    
Maximum Humidity 100    
Minimum Humidity 75    
Precipitation  
Precipitation 0.03 in 0.02 in 0.62 in (1897)
Month to date precipitation 0.05 0.12  
Year to date precipitation 0.30 0.38  
Snow  
Snow T in 0.20 in 6.40 in (1944)
Month to date snowfall T 1.5  
Since 1 July snowfall 18.2 18.0  
Snow Depth T in    
Sea Level Pressure  
Sea Level Pressure 29.75 in    
Wind  
Wind Speed 8 mph (North)    
Max Wind Speed 18 mph    
Max Gust Speed 23 mph    
Visibility 6 miles    
Events Rain , Snow    
T = Trace of Precipitation, MM = Missing Value Source: NWS Daily Summary

Daily Weather History Graph

Daily Weather History Graph

Search for Another Location

Airport or City:

Trip Planner

Search our weather history database for the weather conditions in past years. The results will help you decide how hot, cold, wet, or windy it might be!

Date:

Astronomy

Feb. 09, 2013 Rise Set
Actual Time 7:47 AM CST 6:06 PM CST
Civil Twilight 7:17 AM CST 6:35 PM CST
Nautical Twilight 6:44 AM CST 7:09 PM CST
Astronomical Twilight 6:11 AM CST 7:42 PM CST
Moon 6:59 AM CST (2/9) 5:52 PM CST (2/9)
Length of Visible Light 11h 17m
Length of Day
10h 19m
Waning Crescent, 0% of the Moon is Illuminated
Feb 9
Waning Crescent
Feb 10
New
Feb 17
First Quarter
Feb 25
Full
Mar 4
Last Quarter

Hourly Weather History & Observations

Time (CST) Temp. Windchill Dew Point Humidity Pressure Visibility Wind Dir Wind Speed Gust Speed Precip Events Conditions
12:52 AM 34.0 °F 26.6 °F 26.1 °F 73% 29.85 in 10.0 mi SSW 9.2 mph - N/A   Clear
1:52 AM 32.0 °F 23.0 °F 26.1 °F 79% 29.84 in 10.0 mi SSW 11.5 mph - N/A   Clear
2:52 AM 30.0 °F - 24.1 °F 79% 29.85 in 10.0 mi Calm Calm - N/A   Clear
3:52 AM 27.0 °F 21.6 °F 24.1 °F 89% 29.83 in 10.0 mi WNW 4.6 mph - N/A   Clear
4:52 AM 25.0 °F - 23.0 °F 92% 29.83 in 10.0 mi Calm Calm - N/A   Clear
5:52 AM 24.1 °F - 21.9 °F 91% 29.84 in 10.0 mi Calm Calm - N/A   Clear
6:52 AM 21.0 °F - 19.0 °F 92% 29.85 in 10.0 mi Calm Calm - N/A   Clear
7:52 AM 21.0 °F 16.2 °F 19.0 °F 92% 29.87 in 3.0 mi NNW 3.5 mph - N/A   Scattered Clouds
7:54 AM 21.2 °F 14.9 °F 19.4 °F 93% 29.80 in 1.8 mi NNW 4.6 mph - N/A   Mostly Cloudy
7:57 AM 21.2 °F 16.4 °F 21.2 °F 100% 29.80 in 0.8 mi NNW 3.5 mph - N/A   Mostly Cloudy
8:48 AM 24.8 °F 16.9 °F 24.8 °F 100% 29.80 in 1.0 mi North 6.9 mph - N/A   Overcast
8:52 AM 25.0 °F 16.3 °F 24.1 °F 96% 29.86 in 0.8 mi North 8.1 mph - N/A   Overcast
9:13 AM 26.6 °F 17.5 °F 24.8 °F 93% 29.79 in 1.2 mi North 9.2 mph - N/A   Overcast
9:25 AM 26.6 °F 18.2 °F 24.8 °F 93% 29.79 in 2.5 mi North 8.1 mph - N/A   Overcast
9:33 AM 26.6 °F 19.1 °F 24.8 °F 93% 29.79 in 3.0 mi North 6.9 mph - N/A   Overcast
9:52 AM 27.0 °F 19.5 °F 25.0 °F 92% 29.87 in 5.0 mi NNE 6.9 mph - N/A   Overcast
10:52 AM 27.0 °F 23.0 °F 26.1 °F 96% 29.86 in 9.0 mi NNE 3.5 mph - N/A   Overcast
11:09 AM 28.4 °F 22.2 °F 26.6 °F 93% 29.79 in 10.0 mi NNE 5.8 mph - N/A   Overcast
11:52 AM 28.0 °F 21.7 °F 26.1 °F 92% 29.83 in 9.0 mi North 5.8 mph - N/A   Overcast
12:52 PM 28.9 °F 21.1 °F 26.1 °F 89% 29.79 in 10.0 mi North 8.1 mph - N/A   Overcast
1:52 PM 28.9 °F 21.9 °F 25.0 °F 85% 29.78 in 10.0 mi NE 6.9 mph - N/A   Overcast
2:52 PM 28.9 °F 21.9 °F 25.0 °F 85% 29.77 in 10.0 mi NE 6.9 mph - N/A   Overcast
3:52 PM 28.9 °F 19.2 °F 25.0 °F 85% 29.72 in 10.0 mi North 11.5 mph - N/A   Overcast
4:52 PM 28.0 °F 17.0 °F 25.0 °F 88% 29.72 in 10.0 mi NNE 13.8 mph - N/A   Overcast
5:52 PM 26.1 °F 16.8 °F 24.1 °F 92% 29.74 in 5.0 mi North 9.2 mph - N/A   Overcast
6:11 PM 26.6 °F 16.8 °F 24.8 °F 93% 29.67 in 3.0 mi North 10.4 mph - N/A   Overcast
6:52 PM 26.1 °F 15.6 °F 24.1 °F 92% 29.77 in 4.0 mi North 11.5 mph - N/A   Overcast
7:52 PM 26.1 °F 16.2 °F 24.1 °F 92% 29.75 in 9.0 mi North 10.4 mph - N/A   Overcast
8:13 PM 26.6 °F 15.2 °F 23.0 °F 86% 29.64 in 10.0 mi NNE 13.8 mph - N/A   Overcast
8:52 PM 27.0 °F 16.1 °F 23.0 °F 85% 29.69 in 10.0 mi North 12.7 mph 20.7 mph N/A   Overcast
9:52 PM 27.0 °F 16.1 °F 24.1 °F 89% 29.67 in 9.0 mi North 12.7 mph - N/A   Overcast
9:59 PM 26.6 °F 14.7 °F 24.8 °F 93% 29.59 in 5.0 mi North 15.0 mph - 0.00 in Rain Light Freezing Rain
10:05 PM 26.6 °F 13.8 °F 24.8 °F 93% 29.58 in 2.5 mi North 17.3 mph 20.7 mph 0.00 in Snow Light Snow
10:20 PM 26.6 °F 15.2 °F 24.8 °F 93% 29.58 in 2.0 mi North 13.8 mph - 0.02 in Snow Light Snow
10:28 PM 26.6 °F 14.7 °F 24.8 °F 93% 29.57 in 3.0 mi North 15.0 mph - 0.02 in Snow Light Snow
10:47 PM 26.6 °F 14.7 °F 24.8 °F 93% 29.55 in 2.0 mi North 15.0 mph 21.9 mph 0.03 in Snow Light Snow
10:52 PM 27.0 °F 16.1 °F 25.0 °F 92% 29.63 in 2.5 mi North 12.7 mph - 0.03 in Snow Light Snow
11:01 PM 26.6 °F 15.2 °F 24.8 °F 93% 29.55 in 4.0 mi North 13.8 mph - N/A   Overcast
11:52 PM 27.0 °F 16.1 °F 25.0 °F 92% 29.62 in 3.0 mi North 12.7 mph 20.7 mph 0.00 in   Overcast